Regional Weather Roundup
Issued by NWS

Home | Current Version | Previous Version | Text Only | Print | Product List | Glossary Off
Versions: 1 2 3 4 5 6 7 8 9 10 11 12 13 14 15 16 17 18 19 20 21 22 23 24 25 26 27 28

000
ASUS45 KSLC 171410
RWRUT

UTAH REGIONAL WEATHER ROUNDUP
NATIONAL WEATHER SERVICE SALT LAKE CITY UT
800 AM MDT THU APR 17 2014

UTZ001>011-023>025-171500-

NORTHERN UTAH

CITY           SKY/WX    TMP DP  RH WIND       PRES   REMARKS
HILL AFB       SUNNY     40  15  36 E16       30.06R WCI  31
LOGAN          SUNNY     34  27  75 CALM      30.06R
OGDEN          SUNNY     41  17  38 S6        30.05R
PROVO AIRPORT  MOSUNNY   39  27  60 SE5       30.10R
SALT LAKE CITY MOSUNNY   44  26  49 S10       30.06R
VERNAL         SUNNY     36  21  54 CALM      30.10R
WENDOVER       SUNNY     43  19  39 W5        30.04S
HEBER CITY     SUNNY     32  23  69 CALM      30.12R
WEST JORDAN    SUNNY     45  28  53 S10       30.07R

$$

UTZ012>022-026-027-171500-

SOUTHERN UTAH

CITY           SKY/WX    TMP DP  RH WIND       PRES   REMARKS
BRYCE CANYON   SUNNY     30  22  72 W6        30.15R WCI  24
CEDAR CITY     SUNNY     35  21  56 CALM      30.06R
MILFORD        SUNNY     40  19  43 N3        30.06R
MOAB/CYNLANDS  SUNNY     39  21  48 CALM      30.07R
PRICE          SUNNY     41  14  33 SE3       30.08R
ST GEORGE      SUNNY     55  25  30 SE5       30.00R

$$

REGIONAL REPORTS     COLORADO/ARIZONA

CITY           SKY/WX    TMP DP  RH WIND       PRES   REMARKS
CRAIG, CO      SUNNY     27  21  78 CALM      30.13R
GRAND JUNCTION SUNNY     40  23  50 SE10      30.09R WCI  33
RIFLE          MOSUNNY   34  24  67 CALM      30.13R
MONTROSE       SUNNY     36  24  62 S7        30.13R WCI  30
CORTEZ         SUNNY     33  23  66 NE5       30.13R WCI  29
PAGE, AZ       SUNNY     52  25  35 CALM      30.06R
GRAND CANYON   SUNNY     33  18  53 NE3       30.12R
KINGMAN        SUNNY     61  16  17 SE14      29.94R
FLAGSTAFF      SUNNY     35  21  56 CALM      30.14R

$$

REGIONAL REPORTS    NEVADA/IDAHO/WYOMING

CITY           SKY/WX    TMP DP  RH WIND       PRES   REMARKS
LAS VEGAS, NV  SUNNY     67  25  20 SW5       29.85R
ELY            SUNNY     31  23  72 S13       30.08S WCI  21
ELKO           MOSUNNY   35  23  61 NE6       30.03S WCI  30
POCATELLO, ID  SUNNY     39  20  46 CALM      30.04R
BURLEY         SUNNY     35  21  56 CALM      30.01R
EVANSTON, WY   SUNNY     32  13  45 S5        30.09R WCI  27
ROCK SPRINGS   PTSUNNY   29  12  49 CALM      30.09R

$$



USA.gov is the U.S. government's official web portal to all federal, state and local government web resources and services.